TimeEDT,TemperatureF,Dew PointF,Humidity,Sea Level PressureIn,VisibilityMPH,Wind Direction,Wind SpeedMPH,Gust SpeedMPH,PrecipitationIn,Events,Conditions,WindDirDegrees,DateUTC
12:53 AM,48.9,42.1,77,30.11,10.0,NNE,12.7,20.7,N/A,,Overcast,20,2013-05-24 04:53:00
1:53 AM,48.9,43.0,80,30.13,10.0,North,13.8,-,N/A,,Overcast,10,2013-05-24 05:53:00
2:53 AM,48.9,43.0,80,30.15,10.0,NNE,12.7,-,0.00,,Overcast,20,2013-05-24 06:53:00
3:53 AM,48.0,42.1,80,30.17,10.0,NNE,12.7,20.7,N/A,,Overcast,20,2013-05-24 07:53:00
4:53 AM,48.0,37.0,66,30.19,10.0,North,11.5,17.3,N/A,,Overcast,10,2013-05-24 08:53:00
5:33 AM,46.4,35.6,66,30.20,10.0,North,12.7,-,N/A,,Overcast,10,2013-05-24 09:33:00
5:53 AM,46.9,37.0,68,30.21,10.0,NNE,8.1,-,N/A,,Overcast,20,2013-05-24 09:53:00
6:53 AM,45.0,37.0,74,30.22,10.0,NNE,8.1,-,N/A,,Partly Cloudy,20,2013-05-24 10:53:00
7:53 AM,48.0,37.9,68,30.24,10.0,NNE,9.2,-,N/A,,Clear,20,2013-05-24 11:53:00
8:53 AM,48.9,37.0,64,30.27,10.0,North,10.4,-,N/A,,Clear,10,2013-05-24 12:53:00
9:53 AM,51.1,37.0,59,30.30,10.0,North,8.1,17.3,N/A,,Mostly Cloudy,350,2013-05-24 13:53:00
10:53 AM,53.1,39.0,59,30.31,10.0,North,13.8,-,N/A,,Mostly Cloudy,350,2013-05-24 14:53:00
11:53 AM,55.0,39.0,55,30.31,10.0,NW,10.4,19.6,N/A,,Scattered Clouds,320,2013-05-24 15:53:00
12:53 PM,57.0,37.9,49,30.32,10.0,North,10.4,17.3,N/A,,Scattered Clouds,360,2013-05-24 16:53:00
1:53 PM,59.0,37.9,46,30.32,10.0,NNE,15.0,20.7,N/A,,Clear,20,2013-05-24 17:53:00
2:53 PM,60.1,37.0,42,30.31,10.0,NW,10.4,-,N/A,,Clear,320,2013-05-24 18:53:00
3:53 PM,62.1,35.1,37,30.31,10.0,NW,8.1,20.7,N/A,,Clear,320,2013-05-24 19:53:00
4:53 PM,63.0,35.1,35,30.29,10.0,NW,11.5,21.9,N/A,,Clear,320,2013-05-24 20:53:00
5:53 PM,63.0,34.0,34,30.29,10.0,NNW,6.9,18.4,N/A,,Clear,330,2013-05-24 21:53:00
6:53 PM,63.0,34.0,34,30.28,10.0,North,8.1,-,N/A,,Clear,350,2013-05-24 22:53:00
7:53 PM,62.1,32.0,32,30.27,10.0,North,6.9,-,N/A,,Clear,350,2013-05-24 23:53:00
8:53 PM,57.9,33.1,39,30.26,10.0,NNW,4.6,-,N/A,,Clear,340,2013-05-25 00:53:00
9:53 PM,53.1,37.0,55,30.28,10.0,NE,3.5,-,N/A,,Clear,40,2013-05-25 01:53:00
10:53 PM,52.0,37.9,59,30.30,10.0,NE,3.5,-,N/A,,Clear,40,2013-05-25 02:53:00
11:53 PM,48.0,39.9,74,30.31,10.0,NE,3.5,-,N/A,,Clear,50,2013-05-25 03:53:00